Regional Weather Roundup
Issued by NWS Albany, NY

Home | Current Version | Previous Version | Text Only | Print | Product List | Glossary On
Versions: 1 2 3 4 5 6 7 8 9 10 11 12 13 14 15 16 17 18 19 20 21 22 23 24 25 26 27 28 29 30 31 32 33 34 35 36 37 38 39 40 41 42 43 44 45 46 47 48 49 50
000
ASUS41 KALY 231010
RWRALY

NEW YORK STATE HOURLY WEATHER ROUNDUP
NATIONAL WEATHER SERVICE ALBANY NY
600 AM EDT TUE SEP 23 2014

NOTE: "FAIR" INDICATES FEW OR NO CLOUDS BELOW 12,000 FEET WITH NO
SIGNIFICANT WEATHER AND/OR NO OBSTRUCTIONS TO VISIBILITY.

NYZ032-033-038>043-046>054-057>066-NYZ062>081-231100-
EAST


CITY           SKY/WX    TMP DP  RH WIND       PRES   REMARKS
ALBANY         CLEAR     41  39  93 CALM      30.25R
GLENS FALLS    PTCLDY    36  34  92 CALM      30.23R
POUGHKEEPSIE   CLEAR     39  36  89 CALM      30.25R
NEWBURGH       CLEAR     43  41  93 SW7       30.26R
MONTGOMERY     CLEAR     40  37  89 CALM      30.25R
WHITE PLAINS   CLEAR     42  38  85 NW7       30.24R
ISLIP          PTCLDY    51  42  71 N5        30.22R
NEW YORK CITY  PTCLDY    54  40  59 NW9       30.24R
CENTRAL PARK   CLEAR     52  39  61 CALM      30.27R
$$

NYZ005>009-017-018-044>046-055-056-231100-
CENTRAL


CITY           SKY/WX    TMP DP  RH WIND       PRES   REMARKS
FULTON         PTCLDY    45  41  86 SW6       30.25R
SYRACUSE       PTCLDY    47  42  83 W8        30.25R
ROME           CLEAR     40  39  97 SE3       30.27R
ELMIRA         FOG       39  39 100 SW5       30.28S VSB 1/4
BINGHAMTON     CLEAR     43  39  86 VRB5      30.26R
MONTICELLO     CLEAR     39  37  93 CALM      30.26R
$$

NYZ026>034-041>043-231100-
NORTH


CITY           SKY/WX    TMP DP  RH WIND       PRES   REMARKS
WATERTOWN      CLOUDY    50  43  77 S6        30.21S
FORT DRUM      NOT AVBL
MASSENA        CLOUDY    47  43  86 SW9       30.18R
SARANAC LAKE   CLOUDY    40  38  93 SW6       30.17R
PLATTSBURGH    CLOUDY    45  43  93 CALM      30.17S
$$

NYZ001>004-010>016-019>021-231100-
WEST


CITY           SKY/WX    TMP DP  RH WIND       PRES   REMARKS
NIAGARA FALLS  CLEAR     48  40  73 W6        30.25S
BUFFALO        PTCLDY    46  41  82 S8        30.26S
DUNKIRK        CLEAR     48  43  82 S7        30.28S
JAMESTOWN      CLEAR     39  39 100 S5        30.29S
WELLSVILLE     CLEAR     40  37  89 W6        30.29R
ROCHESTER      CLEAR     43  40  89 SW7       30.25S
PENN YAN       CLEAR     45  41  86 SW5       30.26S
$$

             KEY
       WCI = WIND CHILL INDEX
       VSB = VISIBILITY
       HX  = HEAT INDEX
$$


USA.gov is the U.S. government's official web portal to all federal, state and local government web resources and services.